Weather reports worldwide

Advertisment
Coningsby, United Kingdom (3391): temperature & dewpoint: 14.06.2019 13:00:00 - 20.06.2019 13:00:00 (BST)Coningsby, United Kingdom (3391): temperature -20cm & temperature -100cm: 14.06.2019 13:00:00 - 20.06.2019 13:00:00 (BST)Coningsby, United Kingdom (3391): wind speed & gusts: 14.06.2019 13:00:00 - 20.06.2019 13:00:00 (BST)Coningsby, United Kingdom (3391): wind direction: 14.06.2019 13:00:00 - 20.06.2019 13:00:00 (BST)Coningsby, United Kingdom (3391): reduced air pressure: 14.06.2019 13:00:00 - 20.06.2019 13:00:00 (BST)Coningsby, United Kingdom (3391): visibility: 14.06.2019 13:00:00 - 20.06.2019 13:00:00 (BST)Coningsby, United Kingdom (3391): precipitation: 14.06.2019 13:00:00 - 20.06.2019 13:00:00 (BST)
Date & Time tt [°C] td [°C] tt -20cm [°C] tt -100cm [°C] ff [km/h] ff [kn] fx [km/h] fx [kn] dd ppp [hPa] vv [km] rr [mm]
20.06.2019 13:00:00 17,7 9,2 - - 18 10 - - WSW 1010,7 10 -
20.06.2019 12:00:00 16,4 10,4 - - 24 13 - - W 1010,7 10 0,0
20.06.2019 11:00:00 17,5 11,5 - - 24 13 - - W 1010,1 10 0,0
20.06.2019 10:00:00 16,2 10,4 13,4 13,7 16 9 - - W 1009,9 10 0,0
20.06.2019 09:00:00 15,1 10,4 - - 18 10 - - W 1009,8 10 0,0
20.06.2019 08:00:00 13,5 10,0 - - 18 10 - - W 1009,5 10 0,0
20.06.2019 07:00:00 12,2 10,3 - - 18 10 - - W 1009,3 10 0,0
20.06.2019 06:00:00 12,0 10,6 - - 11 6 - - WSW 1009,0 10 0,0
20.06.2019 05:00:00 12,8 10,3 - - 5 3 - - W 1008,7 10 0,0
20.06.2019 04:00:00 13,5 11,0 - - 11 6 - - W 1008,6 19 0,0
20.06.2019 03:00:00 13,8 11,6 - - 4 2 - - WNW 1008,6 21 0,0
20.06.2019 02:00:00 14,2 12,2 - - 8 4 - - WNW 1008,7 10 0,0
20.06.2019 01:00:00 14,8 13,2 - - 8 4 - - W 1008,5 10 0,0
20.06.2019 00:00:00 14,9 13,6 - - 4 2 - - NW 1008,2 10 0,0
19.06.2019 23:00:00 15,1 13,1 - - 8 4 - - NNW 1008,1 9 1,8
19.06.2019 22:00:00 15,9 13,7 - - 9 5 - - SSW 1007,9 10 0,0
19.06.2019 21:00:00 17,0 13,0 - - 5 3 - - SSW 1007,5 10 0,0
19.06.2019 20:00:00 17,9 11,3 - - 4 2 - - WNW 1007,2 10 0,0
19.06.2019 19:00:00 17,9 12,1 - - 9 5 - - NW 1006,9 10 0,0
19.06.2019 18:00:00 17,6 12,6 - - 8 4 - - NNW 1006,9 10 0,0
19.06.2019 17:00:00 18,2 12,9 - - 15 8 - - NW 1007,0 10 0,0
19.06.2019 16:00:00 18,3 13,5 - - 13 7 - - NW 1007,2 10 0,0
19.06.2019 15:00:00 17,6 14,2 - - 13 7 - - NW 1007,3 25 0,0
19.06.2019 14:00:00 16,8 13,5 - - 18 10 - - WNW 1007,4 10 0,0
19.06.2019 13:00:00 18,0 13,6 - - 9 5 - - NW 1007,3 22 0,0
19.06.2019 12:00:00 17,0 13,3 - - 8 4 - - WNW 1007,4 10 0,0
19.06.2019 11:00:00 16,1 12,3 - - 5 3 - - WNW 1007,4 10 0,0
19.06.2019 10:00:00 15,6 12,3 13,0 13,5 2 1 - - SSE 1007,6 10 0,0
19.06.2019 09:00:00 15,2 12,4 - - 4 2 - - NE 1007,7 10 0,0
19.06.2019 08:00:00 14,5 12,6 - - 9 5 - - NE 1007,4 10 0,0
19.06.2019 07:00:00 13,4 12,6 - - 8 4 - - NE 1007,4 10 0,0
19.06.2019 06:00:00 13,1 12,4 - - 5 3 - - E 1008,2 10 0,0
19.06.2019 05:00:00 13,0 12,4 - - 11 6 - - E 1008,1 10 0,0
19.06.2019 04:00:00 13,2 12,8 - - 13 7 - - E 1008,7 10 0,2
19.06.2019 03:00:00 13,5 12,9 - - 11 6 - - E 1009,6 10 0,0
19.06.2019 02:00:00 13,9 13,7 - - 9 5 - - E 1010,5 10 0,0
19.06.2019 01:00:00 13,9 13,7 - - 8 4 - - E 1010,5 6 0,0
19.06.2019 00:00:00 13,9 13,7 - - 8 4 - - E 1011,1 8 0,0
18.06.2019 23:00:00 14,0 13,5 - - 9 5 - - E 1011,7 10 0,2
18.06.2019 22:00:00 14,3 13,8 - - 9 5 - - ESE 1011,8 8 1,2
18.06.2019 21:00:00 14,9 14,0 - - 9 5 - - E 1011,6 10 0,6
18.06.2019 20:00:00 15,6 14,0 - - 5 3 - - ESE 1012,1 10 0,6
18.06.2019 19:00:00 16,6 14,0 - - 5 3 - - SSE 1012,3 10 0,2
18.06.2019 18:00:00 17,8 12,5 - - 8 4 - - S 1012,4 10 0,0
18.06.2019 17:00:00 18,6 12,2 - - 13 7 - - S 1012,8 10 0,0
18.06.2019 16:00:00 18,4 11,6 - - 8 4 - - SSW 1013,1 10 0,0
18.06.2019 15:00:00 18,4 12,2 - - 8 4 - - SSW 1013,5 10 0,0
18.06.2019 14:00:00 18,3 12,0 - - 11 6 - - WSW 1013,8 10 0,0
18.06.2019 13:00:00 18,4 12,1 - - 13 7 - - SSW 1014,0 40 0,0
18.06.2019 12:00:00 18,0 11,6 - - 13 7 - - SSW 1014,2 10 0,0
18.06.2019 11:00:00 18,4 12,1 - - 11 6 - - S 1014,3 10 0,0
18.06.2019 10:00:00 16,7 11,5 12,7 13,4 11 6 - - SSW 1014,6 10 0,0
18.06.2019 09:00:00 16,0 12,0 - - 8 4 - - WSW 1014,7 10 0,0
18.06.2019 08:00:00 13,9 12,3 - - 8 4 - - SSW 1014,9 10 0,0
18.06.2019 07:00:00 12,1 11,2 - - 9 5 - - SW 1014,7 10 0,0
18.06.2019 06:00:00 10,8 10,1 - - 8 4 - - SSW 1014,7 10 0,0
18.06.2019 05:00:00 10,1 9,3 - - 11 6 - - SW 1014,8 10 0,0
18.06.2019 04:00:00 10,6 9,7 - - 4 2 - - SW 1014,8 10 0,0
18.06.2019 03:00:00 11,2 10,1 - - 9 5 - - SW 1014,9 10 0,0
18.06.2019 02:00:00 12,5 10,8 - - 5 3 - - SW 1014,9 10 0,0
18.06.2019 01:00:00 14,0 11,6 - - 11 6 - - SSW 1015,1 30 0,0
18.06.2019 00:00:00 14,6 11,8 - - 13 7 - - SSW 1015,3 10 0,0
17.06.2019 23:00:00 14,8 11,7 - - 11 6 - - SW 1015,3 10 0,0
17.06.2019 22:00:00 15,1 11,9 - - 11 6 - - SSW 1015,1 10 0,0
17.06.2019 21:00:00 16,6 11,7 - - 11 6 - - S 1014,7 10 0,0
17.06.2019 20:00:00 18,9 11,8 - - 16 9 - - SSW 1014,5 10 0,0
17.06.2019 19:00:00 19,6 11,5 - - 22 12 - - SSW 1014,4 45 0,0
17.06.2019 18:00:00 20,2 12,1 - - 24 13 - - SSW 1014,5 10 0,0
17.06.2019 17:00:00 21,1 12,7 - - 22 12 - - S 1014,6 10 0,0
17.06.2019 16:00:00 21,1 12,7 - - 29 16 - - SSW 1015,0 10 0,0
17.06.2019 15:00:00 20,9 12,7 - - 26 14 - - SSW 1015,1 10 0,0
17.06.2019 14:00:00 20,2 12,6 - - 28 15 - - SSW 1015,5 10 0,0
17.06.2019 13:00:00 20,3 13,3 - - 31 17 - - SSW 1015,6 10 0,0
17.06.2019 12:00:00 18,5 12,2 - - 26 14 - - SSW 1015,9 10 0,0
17.06.2019 11:00:00 18,5 12,2 - - 26 14 - - SSW 1015,9 40 0,0
17.06.2019 10:00:00 18,1 12,0 12,2 13,2 29 16 - - SSW 1015,7 40 0,0
17.06.2019 09:00:00 16,2 11,9 - - 24 13 - - S 1015,8 10 0,0
17.06.2019 08:00:00 15,1 12,0 - - 24 13 - - S 1015,8 10 0,0
17.06.2019 07:00:00 13,8 11,2 - - 18 10 - - S 1015,5 30 0,0
17.06.2019 06:00:00 12,9 10,8 - - 15 8 - - S 1015,0 10 0,0
17.06.2019 05:00:00 13,1 10,7 - - 22 12 - - S 1014,9 10 0,0
17.06.2019 04:00:00 13,2 10,7 - - 21 11 - - S 1014,9 10 0,0
17.06.2019 03:00:00 12,8 10,8 - - 22 12 - - S 1015,0 10 0,0
17.06.2019 02:00:00 12,7 10,5 - - 18 10 - - SSW 1015,2 10 0,0
17.06.2019 01:00:00 13,7 10,9 - - 21 11 - - SSW 1015,3 30 0,0
17.06.2019 00:00:00 14,6 11,1 - - 18 10 - - SSW 1015,3 35 0,0
16.06.2019 23:00:00 14,9 11,5 - - 21 11 - - SSW 1015,3 10 0,0
16.06.2019 22:00:00 14,6 12,5 - - 11 6 - - S 1015,1 10 0,0
16.06.2019 21:00:00 16,3 13,3 - - 21 11 - - SW 1015,0 10 0,0
16.06.2019 20:00:00 17,1 13,2 - - 16 9 48 26 SSW 1014,6 10 0,0
16.06.2019 19:00:00 18,6 12,5 - - 22 12 - - SW 1014,2 10 0,0
16.06.2019 18:00:00 20,2 11,7 - - 26 14 48 26 SW 1013,8 10 0,0
16.06.2019 17:00:00 19,3 12,3 - - 24 13 - - SW 1013,7 10 0,0
16.06.2019 16:00:00 17,2 14,8 - - 16 9 - - SW 1014,0 10 0,4
16.06.2019 15:00:00 18,9 12,2 - - 24 13 - - SSW 1013,4 10 0,0
16.06.2019 14:00:00 18,6 12,6 - - 22 12 - - SSW 1013,7 10 0,0
16.06.2019 13:00:00 16,0 11,4 - - 21 11 - - S 1014,1 10 0,0
16.06.2019 12:00:00 15,3 12,5 - - 21 11 - - S 1014,5 10 0,0
16.06.2019 11:00:00 14,8 11,9 - - 22 12 - - SSW 1014,8 10 0,0
16.06.2019 10:00:00 14,1 11,3 11,7 13,0 21 11 - - S 1014,7 10 0,0
16.06.2019 09:00:00 13,6 10,9 - - 18 10 - - S 1014,9 10 0,0
16.06.2019 08:00:00 12,4 10,2 - - 15 8 - - S 1014,5 10 0,0
16.06.2019 07:00:00 10,9 10,1 - - 9 5 - - SSW 1014,1 10 0,0
16.06.2019 06:00:00 9,6 9,2 - - 5 3 - - SSE 1014,1 10 0,0
16.06.2019 05:00:00 8,8 8,2 - - 5 3 - - SSE 1013,7 10 0,0
16.06.2019 04:00:00 8,3 7,6 - - 8 4 - - S 1013,7 29 0,0
16.06.2019 03:00:00 7,9 6,8 - - 9 5 - - S 1013,5 30 0,0
16.06.2019 02:00:00 8,6 7,7 - - 9 5 - - SSW 1013,2 10 0,0
16.06.2019 01:00:00 9,9 9,1 - - 15 8 - - SSW 1013,0 10 0,0
16.06.2019 00:00:00 10,8 9,8 - - 11 6 - - S 1012,6 10 0,0
15.06.2019 23:00:00 12,3 11,1 - - 5 3 - - S 1012,1 10 0,0
15.06.2019 22:00:00 12,4 11,4 - - 8 4 - - SSW 1012,0 10 0,0
15.06.2019 21:00:00 12,7 11,1 - - 11 6 - - S 1011,6 10 0,0
15.06.2019 20:00:00 14,9 11,9 - - 16 9 - - S 1011,1 10 0,2
15.06.2019 19:00:00 15,1 13,8 - - 13 7 - - SW 1011,2 10 1,6
15.06.2019 18:00:00 13,3 10,6 - - 29 16 50 27 SSW 1011,6 10 1,0
15.06.2019 17:00:00 17,0 12,4 - - 21 11 - - S 1011,0 10 0,2
15.06.2019 16:00:00 14,4 12,4 - - 26 14 - - SSW 1011,3 7 0,8
15.06.2019 15:00:00 17,1 11,3 - - 15 8 - - S 1011,2 30 0,0
15.06.2019 14:00:00 16,8 10,1 - - 18 10 - - SSW 1011,4 10 0,0
15.06.2019 13:00:00 16,9 10,0 - - 15 8 - - SSW 1011,4 10 0,0
15.06.2019 12:00:00 19,0 10,1 - - 22 12 - - SSW 1011,2 10 0,0
15.06.2019 11:00:00 17,2 11,6 - - 24 13 - - S 1011,5 10 0,0
15.06.2019 10:00:00 16,0 10,8 11,7 13,0 18 10 - - SSW 1011,6 10 0,0
15.06.2019 09:00:00 13,6 11,8 - - 13 7 - - SSW 1011,6 10 0,0
15.06.2019 08:00:00 11,6 10,7 - - 11 6 - - SSW 1011,7 10 0,0
15.06.2019 07:00:00 9,9 9,6 - - 8 4 - - S 1011,4 10 0,0
15.06.2019 06:00:00 8,7 8,4 - - 8 4 - - ESE 1011,5 10 0,0
15.06.2019 05:00:00 8,4 8,2 - - 2 1 - - S 1011,1 10 0,0
15.06.2019 04:00:00 8,6 8,1 - - 5 3 - - E 1010,8 19 0,0
15.06.2019 03:00:00 8,6 7,7 - - 5 3 - - SSE 1011,3 22 0,0
15.06.2019 02:00:00 10,3 8,9 - - 11 6 - - S 1011,4 10 0,0
15.06.2019 01:00:00 11,8 9,9 - - 9 5 - - S 1011,3 10 0,0
15.06.2019 00:00:00 12,6 10,5 - - 11 6 - - S 1011,2 30 0,0
14.06.2019 23:00:00 12,5 11,1 - - 8 4 - - SSE 1011,0 10 0,0
14.06.2019 22:00:00 12,6 11,3 - - 8 4 - - SE 1010,7 10 0,0
14.06.2019 21:00:00 13,8 12,2 - - 5 3 - - E 1010,2 10 0,0
14.06.2019 20:00:00 15,3 12,6 - - 4 2 - - S 1009,8 10 2,2
14.06.2019 19:00:00 15,8 12,8 - - 5 3 - - SSW 1009,7 10 0,0
14.06.2019 18:00:00 15,9 12,5 - - 11 6 - - W 1009,3 10 6,2
14.06.2019 17:00:00 17,0 11,8 - - 9 5 - - S 1008,7 10 0,0
14.06.2019 16:00:00 17,7 11,3 - - 18 10 - - S 1009,2 10 0,0
14.06.2019 15:00:00 15,7 12,4 - - 15 8 - - SSW 1009,4 10 0,0
14.06.2019 14:00:00 15,8 13,4 - - 16 9 - - S 1009,2 10 0,0
14.06.2019 13:00:00 12,8 11,8 - - 16 9 48 26 WSW 1009,0 8 0,8

tt = temperature
td = dewpoint
tt -20cm = temperature -20cm
tt -100cm = temperature -100cm
ff = wind speed
fx = gusts
dd = wind direction
ppp = reduced air pressure
vv = visibility
rr = precipitation

Next stations